Location: Alsace
(33.9786°N, 118.4156°W)
Time: 00:28:57
(UTC+00:00)

Daily predictions for brighter satellites

Satellite Brightness Start Highest point End
(mag) Time Altitude Azimuth Time Altitude Azimuth Time Altitude Azimuth
Cosmos 1814 Rocket 4.1 03:17:41 10° N 03:22:44 58° ENE 03:27:48 10° SSE
MetOp-A 4.1 03:22:35 10° SE 03:26:19 35° ENE 03:29:53 10° N
Cosmos 841 Rocket 4.1 03:23:18 10° NNW 03:28:23 60° WSW 03:33:28 10° S
Cosmos 1697 Rocket 2.8 03:24:22 10° S 03:29:54 60° ESE 03:35:29 10° NNE
CZ-4B R/B 2.9 03:29:11 10° NE 03:31:14 16° E 03:33:15 10° SE
Cosmos 2098 Rocket 3.1 03:30:04 10° NNW 03:32:57 46° W 03:35:41 10° SSW
USA 186 0.9 03:31:38 10° SSE 03:34:04 75° ENE 03:36:26 10° N
Gbstr 26 Del rocket 4.2 03:27:26 10° NW 03:34:59 90° SW 03:41:08 10° SE
deb Chang Zheng 4 3.8 03:31:45 10° S 03:35:50 66° WSW 03:39:56 10° NNW
Cosmos 2360 4.2 03:31:11 10° S 03:36:46 65° ESE 03:42:24 10° NNE
CSL-04 Debris 4.2 03:31:39 10° SSE 03:37:04 86° ENE 03:42:30 10° NNW
OBJECT-B 1.3 03:34:35 10° S 03:37:25 51° W 03:40:15 10° NNW
Cosmos 1151 Rocket 3.0 03:33:45 10° S 03:38:02 87° W 03:42:18 10° N
Cosmos 1340 3.7 03:41:02 10° SSE 03:44:09 26° E 03:47:18 10° NE
COBE Rocket 4.2 03:40:13 10° SSE 03:45:12 56° ENE 03:50:06 10° N
Cosmos 2297 Rocket 2.3 03:40:05 10° NNW 03:45:43 64° ENE 03:51:08 11° SSE
CZ-4 R/B 3.6 03:42:25 10° SSW 03:45:43 25° W 03:49:04 10° NW
ATLAS 2AS CENTAUR R/B 3.3 03:39:23 10° S 03:46:33 41° ESE 03:53:38 10° NE
Resurs 1-3 3.7 03:46:28 10° SSE 03:50:44 57° ENE 03:55:03 10° N
Cosmos 1503 Rocket 4.5 03:46:15 10° SSE 03:51:05 39° E 03:55:59 10° NNE
SJ-6B 2.8 03:47:43 10° S 03:51:33 78° WSW 03:55:20 10° NNW
NOSS 3-4 (A) 4.2 03:46:09 10° SW 03:51:39 53° NW 03:57:28 10° NNE
NOSS 3-4 (C) 4.1 03:46:10 10° SW 03:51:42 54° NW 03:57:33 10° NNE
Cosmos 1666 Rocket 3.5 03:47:35 10° N 03:52:00 72° E 03:56:25 10° SSE
H-2A R/B 2.8 03:48:59 10° S 03:53:23 74° WSW 03:57:40 10° NNW
Meteor 1-5 Rocket 4.5 03:49:14 10° NNW 03:54:31 66° W 03:59:45 10° S
SJ 16-02 2.6 03:52:33 14° SE 03:54:59 22° E 03:58:22 10° NE
Cosmos 1315 Rocket 2.7 03:51:49 10° N 03:55:52 76° E 03:59:46 10° SSE
Cosmos 1633 Rocket 3.0 03:55:32 10° N 03:59:53 71° E 04:03:56 12° SSE
ATLAS 5 CENTAUR R/B 3.5 03:47:21 10° W 04:01:36 27° SSW 04:06:10 13° SSE
Cosmos 1743 3.9 04:00:40 10° NNE 04:03:50 25° ENE 04:05:10 20° ESE
SPOT 1/Viking Rocket 4.3 04:02:44 18° SE 04:06:01 35° ENE 04:10:40 10° N
Meteor 1-10 Rocket 4.4 04:01:01 10° SSW 04:06:32 73° W 04:12:07 10° N
Cosmos 1470 Rocket 3.7 04:07:22 10° N 04:11:36 53° E 04:14:11 22° SSE
Meteor 1-27 Rocket 3.7 04:09:49 10° S 04:15:32 81° E 04:21:24 10° N
OAO 3 Rocket 3.2 04:10:53 10° W 04:15:49 85° N 04:19:18 20° E
DASH 4.0 04:00:37 10° W 04:16:18 44° SSW 04:18:48 23° SSE
Resurs 01 Rocket 1.7 04:16:58 24° SE 04:19:27 57° ENE 04:23:47 10° N
Cosmos 1515 Rocket 3.4 04:15:09 10° S 04:19:29 86° E 04:23:53 10° N
Cosmos 2278 4.0 04:14:53 10° S 04:20:13 45° ESE 04:25:35 10° NE
Cosmos 2208 Rocket 4.3 04:15:01 10° NNW 04:20:24 67° WSW 04:24:53 15° S
NOSS 3-2 (C) 4.4 04:13:02 10° NW 04:21:00 72° WSW 04:28:22 16° SSE
Ariane Rocket 3.3 04:20:59 25° SE 04:23:42 49° ENE 04:28:35 10° N
Terra 4.0 04:23:34 10° ENE 04:24:27 10° ENE 04:25:19 10° NE
IGS 5A 4.3 04:20:38 10° S 04:24:37 47° W 04:28:38 10° NNW
Cosmos 2219 3.1 04:19:49 10° NNW 04:25:28 82° ENE 04:28:56 24° SSE
CENTAUR R/B 4.2 04:17:24 10° NW 04:25:32 46° WSW 04:33:59 10° S
Cosmos 921 Rocket 4.0 04:24:23 10° N 04:28:25 31° ENE 04:29:36 27° E
Landsat 7 4.1 04:26:48 16° S 04:30:34 64° W 04:35:16 10° NNW
Cosmos 2082 4.2 04:26:38 10° N 04:32:00 45° ENE 04:34:23 29° ESE
Cosmos 2034 Rocket 4.1 04:27:22 18° SSE 04:32:03 59° E 04:38:15 10° NNE
CARTOSAT-1 4.4 04:31:39 30° ESE 04:32:42 34° ENE 04:36:35 10° N
Cosmos 2263 Rocket 3.6 04:29:45 10° N 04:34:02 22° ENE 04:35:57 19° E
Meteor 1-11 Rocket 3.9 04:30:33 10° N 04:36:31 79° W 04:40:53 19° S
Cosmos 2228 Rocket 3.7 04:36:11 35° ESE 04:36:58 37° E 04:41:11 10° NNE
Okean 1 3.4 04:37:50 43° SE 04:38:46 55° E 04:42:41 10° NNE
Cosmos 1184 Rocket 3.6 04:39:40 22° SW 04:41:17 44° W 04:44:11 10° N
Cosmos 1536 2.9 04:38:54 10° N 04:42:55 76° W 04:44:32 35° S
RESURS DK-1 2.2 04:40:29 14° SSW 04:43:55 89° SE 04:48:03 10° NNE
ASTRO E2 3.3 04:42:34 10° W 04:46:10 37° SSW 04:46:10 37° SSW
SL-4 R/B 2.3 04:43:55 10° NW 04:48:24 63° NE 04:49:24 47° E
BREEZE-M DEB (TANK) 4.3 04:45:40 10° WNW 04:49:10 40° SW 04:51:25 28° S
Cosmos 2227 Rocket 2.9 04:47:26 10° NNW 04:52:52 49° WSW 04:56:08 23° S
Cosmos 1980 Rocket 3.1 04:49:39 10° SW 04:55:04 50° WNW 05:00:34 10° N
Cosmos 1777 Rocket 3.9 04:53:11 23° SSW 04:56:27 84° ESE 05:01:42 10° NNE
Spot 2 Rocket 4.1 04:56:35 36° E 04:57:23 38° ENE 05:02:02 10° N
SPOT 3 Rocket 3.5 04:59:23 47° SE 05:00:47 71° ENE 05:05:55 10° N
ARIANE 5 R/B 4.4 05:01:18 19° ENE 05:01:18 19° ENE 05:04:17 10° NNE
CZ-4B R/B 4.2 05:00:38 10° NNW 05:02:41 16° WNW 05:04:42 10° WSW
Cosmos 1809 Rocket 4.4 04:57:05 10° N 05:03:15 83° E 05:05:42 39° SSE
Cosmos 389 Rocket 3.2 05:00:12 10° NNW 05:03:34 46° W 05:04:00 43° WSW
NOSS 2-1 (D) 4.4 05:05:16 28° NNE 05:05:16 28° NNE 05:06:52 10° NNE
Cosmos 2322 Rocket 3.2 05:04:59 28° E 05:04:59 28° E 05:08:39 10° NE
Cosmos 773 Rocket 4.1 05:00:03 10° N 05:05:08 54° ENE 05:05:56 49° ESE
Meteor 2-4 Rocket 3.8 05:10:31 51° SE 05:11:38 60° E 05:17:15 10° NNE
Cosmos 1975 4.1 05:09:13 10° NNE 05:11:59 30° NE 05:11:59 30° NE
GENESIS II 4.3 05:14:02 69° WNW 05:14:03 69° WNW 05:17:54 10° NNE
Meteor 1-19 Rocket 4.5 05:11:30 23° SSW 05:14:51 62° W 05:20:12 10° N
USA 215 4.4 05:09:48 10° ENE 05:12:52 24° E 05:12:52 24° E
Helios 1A Rocket 3.0 05:19:41 67° NNE 05:19:41 67° NNE 05:23:15 10° N
Cosmos 158 Rocket 4.3 05:23:19 10° N 05:28:21 50° ENE 05:28:23 50° ENE
CZ-3 Stage 3 3.3 05:19:07 10° W 05:28:02 50° SW 05:28:02 50° SW
USA 81 3.9 05:32:10 72° E 05:32:11 72° E 05:37:26 10° N
ERS-1 Rocket 2.8 05:32:27 75° E 05:32:29 75° ENE 05:37:32 10° N
SJ 16-02 3.4 05:29:47 10° WSW 05:33:21 24° WNW 05:36:57 10° NNW
Cosmos 1733 Rocket 4.3 05:30:11 10° N 05:33:09 31° NE 05:33:09 31° NE
Cosmos 1092 Rocket 3.8 05:28:11 10° N 05:34:22 84° E 05:35:23 64° SSE
Cosmos 1634 Rocket 3.9 05:33:08 55° S 05:34:38 89° E 05:40:51 10° N
ATLAS 2AS CENTAUR R/B 4.2 05:30:13 10° WSW 05:37:30 41° NW 05:44:38 10° NNE
CZ-2C R/B 4.0 05:33:50 10° N 05:38:35 68° WNW 05:38:58 64° WSW
Cosmos 2142 Rocket 4.5 05:39:19 61° ESE 05:39:46 62° E 05:46:04 10° NNE
Meteor 2-15 Rocket 4.4 05:40:16 61° E 05:40:21 61° E 05:46:20 10° NNE
Cosmos 1862 Rocket 4.5 05:43:04 42° NNE 05:43:04 42° NNE 05:46:08 10° NNE
SL-16 R/B 2.2 05:42:19 63° SW 05:43:16 81° WNW 05:48:57 10° NNE
Cosmos 2237 4.3 05:46:08 64° ENE 05:46:08 64° ENE 05:51:14 10° NNE
Cosmos 1346 Rocket 3.9 05:47:19 42° NNW 05:47:19 42° NNW 05:50:11 10° N
Cosmos 1538 Rocket 4.5 05:41:27 10° N 05:46:01 49° NE 05:46:01 49° NE
Cosmos 2026 Rocket 4.0 05:52:57 10° N 05:59:06 71° W 05:59:49 65° SW
ISS -0.9 05:57:47 10° NNW 05:58:52 17° NNW 05:58:52 17° NNW
Terra 2.3 06:02:20 57° NW 06:02:20 57° NW 06:06:17 10° NNW
SPOT 5 3.7 06:01:47 47° WSW 06:01:52 47° W 06:06:53 10° NNW
Cosmos 2360 Rocket 2.7 06:09:14 50° NE 06:09:14 50° NE 06:13:26 10° NNE
ATLAS 3B R/B 3.2 06:01:03 10° NNW 06:08:23 56° NE 06:09:35 51° E
Meteor 1-13 Rocket 4.5 06:16:36 61° NNE 06:16:36 61° NNE 06:21:09 10° N
Cosmos 990 Rocket 4.5 06:17:50 58° NNW 06:17:50 58° NNW 06:22:20 10° N
Cosmos 2263 Rocket 3.0 06:12:52 10° NW 06:17:39 41° W 06:17:39 41° W
Cosmos 1898 Rocket 4.3 06:32:56 50° N 06:32:56 50° N 06:36:55 10° NNE
Cosmos 2266 Rocket 4.3 06:28:59 10° N 06:34:11 55° NE 06:34:11 55° NE
H-2A ROCKET BODY 4.1 05:57:37 10° W 06:36:57 54° SSW 06:38:16 52° SSW
ATLAS CENTAUR R/B 3.9 06:35:07 10° N 06:37:47 19° NE 06:37:47 19° NE
Cosmos 2322 Rocket 3.6 06:46:43 29° W 06:47:44 31° WNW 06:52:41 10° N
Cosmos 2333 Rocket 3.0 06:55:08 46° NNE 06:55:08 46° NNE 06:59:02 10° NNE
Cosmos 1844 Rocket 3.5 06:52:12 10° NNW 06:56:11 47° N 06:56:11 47° N
USA 215 3.6 06:52:14 10° NE 06:58:39 60° NW 07:00:09 49° W
ADEOS Rocket 4.3 07:00:12 28° NE 07:00:12 28° NE 07:04:23 10° N
Cosmos 2219 Rocket 3.2 07:13:11 42° NNE 07:13:11 42° NNE 07:16:49 10° NNE
Cosmos 2237 Rocket 3.8 07:43:57 26° NE 07:43:57 26° NE 07:46:42 10° NE
COSMOS 2428 3.7 07:47:44 42° NNW 07:47:44 42° NNW 07:51:42 10° NNE
ATLAS 3B R/B 4.3 07:52:34 10° NW 07:56:50 25° W 07:56:50 25° W
CZ-4C R/B 3.4 07:51:11 10° NNW 07:58:46 61° ENE 07:59:52 57° E
NOSS 3-1 (C) 4.1 08:02:59 10° NNW 08:10:48 83° W 08:10:48 83° W
ATLAS CENTAUR R/B 4.3 08:13:07 10° NW 08:13:47 14° NW 08:13:47 14° NW
Cosmos 2278 Rocket 3.3 08:13:29 10° N 08:17:53 40° NE 08:17:53 40° NE
Lacrosse 5 3.8 08:22:52 23° NE 08:22:52 23° NE 08:24:52 10° NE
SL-16 R/B 3.7 08:31:39 27° ENE 08:31:39 27° ENE 08:34:57 10° NE
SL-16 R/B 4.4 08:46:14 17° E 08:49:09 23° ENE 08:53:51 10° NNE
COSMOS 2455 3.8 09:01:17 37° E 09:01:17 37° E 09:05:57 10° NE
Cosmos 2315 Rocket 4.3 09:02:46 62° NW 09:02:46 62° NW 09:08:19 10° N
Cosmos 1709 Rocket 4.2 08:57:38 10° N 09:02:43 62° NNW 09:02:43 62° NNW
CZ-2D R/B 3.0 09:03:15 10° NNE 09:07:28 44° ENE 09:07:28 44° ENE
Lacrosse 5 rocket 3.7 09:12:11 20° NNE 09:12:11 20° NNE 09:13:33 10° NE
USA 267 3.3 09:13:28 64° WNW 09:13:28 64° WNW 09:19:01 10° NW
Meteor 2-5 Rocket 4.0 09:22:35 65° NNW 09:22:35 65° NNW 09:27:29 10° N
Cosmos 2237 Rocket 3.8 09:25:45 24° WNW 09:25:45 24° WNW 09:30:06 10° N
USA 229 DEB 4.1 09:20:40 10° NW 09:27:29 58° W 09:27:29 58° W
USA 229 4.0 09:20:46 10° NW 09:27:37 58° W 09:27:37 58° W
Resurs 1-4 Rocket 2.3 09:27:48 10° NNE 09:32:24 68° N 09:32:24 68° N
Nadezhda 1 Rocket 4.3 09:38:22 54° SE 09:39:22 60° E 09:45:34 10° NNE
NOSS 3-3 (A) 4.3 09:39:55 44° ESE 09:39:55 44° ESE 09:45:29 10° NE
NOSS 3-3 (C) 4.4 09:40:00 44° ESE 09:40:00 44° ESE 09:45:34 10° NE
IDEFIX/ARIANE 42P 3.2 09:39:43 10° NNE 09:44:47 47° E 09:45:05 46° ESE
Cosmos 1943 Rocket 2.5 09:39:51 10° NNW 09:45:29 64° ENE 09:46:34 53° ESE
ADEOS II 2.3 09:41:04 10° NNE 09:46:16 61° ESE 09:46:18 61° ESE
CZ-4C R/B 4.2 09:40:28 10° NW 09:44:59 27° W 09:44:59 27° W
MOS 1 Rocket 3.9 09:49:39 46° ENE 09:49:39 46° ENE 09:53:34 10° N
Cosmos 2297 4.2 09:47:42 10° NNW 09:53:23 57° ENE 09:55:48 33° SE
Cosmos 2278 Rocket 4.2 09:58:32 10° NW 09:59:42 14° WNW 09:59:42 14° WNW
Lacrosse 5 3.6 10:02:02 20° NW 10:03:08 22° NW 10:07:03 10° NNE
Cosmos 1455 3.9 10:00:28 10° N 10:02:19 28° NNW 10:02:19 28° NNW
NPP 4.0 10:03:48 10° N 10:08:59 50° WNW 10:09:05 50° WNW
Cosmos 1271 Rocket 3.3 10:09:51 10° N 10:13:07 56° NE 10:13:07 56° NE
SL-16 R/B 3.3 10:13:31 28° WNW 10:14:00 29° WNW 10:18:53 10° N
Cosmos 2369 Rocket 3.3 10:10:39 10° N 10:15:55 41° ENE 10:21:09 10° SE
Cosmos 2154 Rocket 3.9 10:13:06 10° N 10:19:26 81° W 10:21:27 46° S
Meteor 1-21 Rocket 4.3 10:17:56 48° SSE 10:19:30 73° E 10:25:04 10° NNE
AQUA 4.3 10:14:57 10° N 10:19:20 47° WNW 10:19:20 47° WNW
Cosmos 2228 3.4 10:17:32 10° N 10:21:50 59° E 10:22:40 49° SE
IRS P6 4.5 10:17:01 10° N 10:22:17 70° WNW 10:23:00 61° WSW
SL-16 R/B 2.7 10:31:19 45° SW 10:32:19 49° W 10:38:20 10° NNW
Cosmos 1603 3.6 10:35:48 48° SSW 10:37:28 86° WNW 10:43:09 10° NNE
Cosmos 1371 Rocket 4.5 10:35:37 32° SSE 10:37:44 53° ESE 10:42:45 10° NNE
GPS 2-04 Rocket1 2.8 10:39:11 54° E 10:39:11 54° E 10:42:00 10° E
Cosmos 1328 3.6 10:41:59 69° S 10:42:27 88° E 10:46:26 10° N
Cosmos 1140 Rocket 4.5 10:40:56 10° N 10:45:59 47° ENE 10:50:59 10° SE
COSMOS 2455 4.0 10:44:25 24° W 10:46:21 29° NW 10:51:31 10° N
CZ-2D R/B 3.8 10:44:33 10° NNW 10:47:59 18° WNW 10:48:47 17° WNW
DNEPR-1 R/B 3.8 10:50:23 43° W 10:51:06 48° WNW 10:55:22 10° NNE
Helios 1B rocket 2.8 10:47:49 10° NNE 10:51:50 60° ESE 10:53:30 32° SSE
Cosmos 1606 Rocket 3.4 10:54:57 10° N 10:59:20 76° W 11:01:19 32° S
Cosmos 1241 Rocket 4.4 10:56:54 31° SSW 11:00:06 90° E 11:06:19 10° NNE
OAO 2 Rocket 3.2 11:00:43 33° WSW 11:02:58 87° S 11:07:55 10° E
MSX 4.4 10:58:41 10° N 11:04:03 41° WNW 11:06:27 28° WSW
Cosmos 2218 Rocket 4.2 10:58:11 10° N 11:04:27 71° E 11:10:45 10° SSE
Helios 1A 3.7 11:04:40 32° W 11:04:40 32° W 11:08:26 10° NW
Cosmos 1943 3.8 11:05:15 28° WSW 11:07:33 41° WNW 11:12:55 10° N
Lacrosse 4 Rocket 2.0 11:07:58 23° S 11:10:26 52° ESE 11:14:34 10° NE
Cosmos 1624 Rocket 4.0 11:07:53 27° SSW 11:10:48 78° WNW 11:16:08 10° NNE
Cosmos 1408 2.5 11:09:13 31° S 11:10:50 84° E 11:14:28 10° N
SEDSat Delta rocket 4.1 11:08:03 26° WSW 11:12:00 65° S 11:18:39 10° E
Meteor 1-11 4.2 11:09:14 20° S 11:13:27 85° W 11:19:16 10° N
Cosmos 2181 Rocket 4.0 11:10:08 22° SSW 11:14:18 67° W 11:20:28 10° N
Cosmos 1892 2.7 11:12:44 24° S 11:14:53 80° E 11:18:39 10° N
Cosmos 1959 Rocket 4.5 11:10:45 10° N 11:17:00 87° E 11:23:09 10° S
ARIANE 5 R/B 3.1 11:12:37 10° NNE 11:17:33 54° E 11:22:24 10° S
IRS-1C 4.4 11:13:30 10° NNE 11:18:50 70° ESE 11:23:53 11° S
Meteor 2-1 Rocket 4.3 11:14:22 10° NNW 11:19:56 55° W 11:24:41 14° SSW
Okean 1-7 Rocket 3.9 11:16:36 13° S 11:20:30 67° E 11:24:53 10° NNE
CBERS-1 4.2 11:16:01 10° N 11:21:00 53° WNW 11:24:04 22° SW
Cosmos 2056 Rocket 3.6 11:19:47 24° SW 11:22:46 59° WNW 11:27:57 10° N
OAO 3 Copernicus 4.4 11:20:38 26° SW 11:23:23 62° SSE 11:28:21 10° E
IDEFIX/ARIANE 42P 4.2 11:20:25 10° NNW 11:23:55 18° WNW 11:25:53 15° W
ADEOS II 4.0 11:22:39 10° NNW 11:25:22 14° WNW 11:27:14 12° W
Cosmos 864 Rocket 4.4 11:20:25 10° N 11:26:35 78° W 11:32:40 10° S
Cosmos 1943 Rocket 3.9 11:25:52 10° WNW 11:28:00 13° W 11:28:00 13° W
ALOS 2.2 11:25:12 10° N 11:29:52 85° WNW 11:34:00 13° SSW
Cosmos 1892 Rocket 4.4 11:28:11 23° WSW 11:30:04 33° W 11:34:07 10° NNW
FENGYUN 3A 3.6 11:24:58 10° N 11:30:20 73° WNW 11:35:03 14° SSW
ATLAS 3B CENTAUR R/B 3.3 11:31:03 12° S 11:33:05 17° SSE 11:36:30 10° ESE
Cosmos 1602 Rocket 4.5 11:29:51 10° SSE 11:34:09 49° E 11:38:27 10° NNE
Cosmos 2263 4.4 11:32:32 10° NNW 11:38:02 51° WSW 11:43:33 10° S
Cosmos 2251 Rocket 4.4 11:33:47 10° NW 11:38:15 29° W 11:42:12 12° SSW
Cosmos 1726 Rocket 4.3 11:34:19 10° NNW 11:38:15 33° W 11:41:07 16° SSW
Cosmos 1190 Rocket 4.0 11:36:28 10° NNW 11:41:47 81° WSW 11:47:04 10° SSE
Meteor 1-29 2.7 11:42:48 10° N 11:46:02 76° WNW 11:49:07 11° SSW
CZ-2C R/B 2.6 11:44:46 10° N 11:49:43 55° WNW 11:54:30 10° SSW
PAYLOAD A 4.2 11:48:40 10° N 11:53:16 50° WNW 11:57:59 10° SSW
